TimeCST,TemperatureF,Dew PointF,Humidity,Sea Level PressureIn,VisibilityMPH,Wind Direction,Wind SpeedMPH,Gust SpeedMPH,PrecipitationIn,Events,Conditions,WindDirDegrees,DateUTC
12:31 AM,19.0,16.0,88,30.02,2.0,NE,11.5,-,0.00,Snow,Light Snow,40,2014-02-05 06:31:00
12:41 AM,19.0,16.0,88,30.01,1.8,NNE,10.4,-,0.00,Snow,Light Snow,30,2014-02-05 06:41:00
12:53 AM,19.0,17.1,92,30.03,1.2,NNE,13.8,-,0.00,Snow,Light Snow,30,2014-02-05 06:53:00
1:06 AM,19.0,17.1,92,29.99,3.0,NNE,10.4,-,0.00,Snow,Light Snow,20,2014-02-05 07:06:00
1:23 AM,19.0,17.1,92,29.98,1.8,NNE,12.7,-,0.00,Snow,Light Snow,20,2014-02-05 07:23:00
1:30 AM,19.0,17.1,92,29.97,1.0,NNE,10.4,-,0.00,Snow,Light Snow,20,2014-02-05 07:30:00
1:53 AM,19.0,17.1,92,30.02,1.0,North,9.2,-,0.00,Snow,Light Snow,10,2014-02-05 07:53:00
2:00 AM,19.0,17.1,92,29.98,0.8,North,9.2,-,0.01,Snow,Light Snow,10,2014-02-05 08:00:00
2:13 AM,19.0,17.1,92,29.98,1.0,North,9.2,18.4,0.01,Snow,Light Snow,10,2014-02-05 08:13:00
2:33 AM,19.0,17.1,92,29.96,0.8,North,12.7,-,0.02,Snow,Light Snow,360,2014-02-05 08:33:00
2:53 AM,19.0,18.0,96,29.99,0.8,North,12.7,-,0.02,Snow,Light Snow,10,2014-02-05 08:53:00
3:18 AM,19.9,18.0,92,29.94,0.5,North,11.5,-,0.01,Fog-Snow,Snow,10,2014-02-05 09:18:00
3:53 AM,19.9,18.0,92,29.99,0.5,NNE,11.5,23.0,0.02,Fog,Light Freezing Fog,20,2014-02-05 09:53:00
4:35 AM,19.9,18.0,92,29.95,0.8,North,12.7,23.0,0.01,,Mist,10,2014-02-05 10:35:00
4:45 AM,19.9,18.0,92,29.95,1.0,North,10.4,20.7,0.01,,Mist,10,2014-02-05 10:45:00
4:53 AM,19.9,19.0,96,30.00,1.0,NNE,10.4,18.4,0.01,,Mist,20,2014-02-05 10:53:00
5:11 AM,19.9,19.0,96,29.95,0.8,NNE,11.5,20.7,N/A,,Mist,20,2014-02-05 11:11:00
5:53 AM,19.9,18.0,92,30.01,0.8,North,11.5,-,0.01,Snow,Light Snow,10,2014-02-05 11:53:00
6:49 AM,19.4,17.6,93,30.00,0.8,North,11.5,21.9,0.01,Snow,Light Snow,10,2014-02-05 12:49:00
6:53 AM,19.9,18.0,92,30.04,0.8,NNE,13.8,23.0,0.01,Snow,Light Snow,20,2014-02-05 12:53:00
7:53 AM,21.0,19.0,92,30.07,0.5,North,13.8,23.0,0.00,Fog-Snow,Snow,10,2014-02-05 13:53:00
8:22 AM,21.0,19.0,92,30.04,1.0,North,13.8,24.2,0.00,Snow,Light Snow,10,2014-02-05 14:22:00
8:53 AM,21.9,18.0,85,30.09,1.0,North,15.0,27.6,0.00,Snow,Light Snow,10,2014-02-05 14:53:00
9:53 AM,21.9,19.0,89,30.14,2.0,North,12.7,23.0,0.00,Snow,Light Snow,10,2014-02-05 15:53:00
10:00 AM,21.9,19.0,89,30.11,2.5,NNE,16.1,26.5,0.00,Snow,Light Snow,20,2014-02-05 16:00:00
10:14 AM,23.0,19.0,85,30.12,3.0,North,15.0,23.0,0.00,Snow,Light Snow,10,2014-02-05 16:14:00
10:38 AM,24.1,19.0,81,30.14,4.0,NNE,11.5,20.7,0.00,Snow,Light Snow,20,2014-02-05 16:38:00
10:53 AM,24.1,18.0,77,30.19,6.0,North,10.4,21.9,0.00,Snow,Light Snow,10,2014-02-05 16:53:00
11:53 AM,24.1,19.9,84,30.20,2.5,NNE,10.4,18.4,0.00,Snow,Light Snow,20,2014-02-05 17:53:00
12:06 PM,24.1,19.9,84,30.17,2.0,North,9.2,-,0.00,Snow,Light Snow,10,2014-02-05 18:06:00
12:15 PM,24.1,19.0,81,30.16,2.5,North,13.8,18.4,0.00,Snow,Light Snow,10,2014-02-05 18:15:00
12:18 PM,24.1,19.0,81,30.17,3.0,North,11.5,18.4,0.00,Snow,Light Snow,10,2014-02-05 18:18:00
12:53 PM,24.1,19.0,81,30.21,3.0,North,11.5,-,0.00,Snow,Light Snow,10,2014-02-05 18:53:00
1:06 PM,24.1,19.0,81,30.18,4.0,North,10.4,-,0.00,Snow,Light Snow,10,2014-02-05 19:06:00
1:40 PM,23.0,19.0,85,30.19,2.0,North,10.4,-,0.00,Snow,Light Snow,350,2014-02-05 19:40:00
1:53 PM,23.0,19.0,85,30.23,1.5,North,11.5,-,0.00,Snow,Light Snow,350,2014-02-05 19:53:00
2:16 PM,24.1,18.0,77,30.21,2.5,North,10.4,18.4,0.00,Snow,Light Snow,350,2014-02-05 20:16:00
2:48 PM,23.0,17.6,80,30.24,3.0,NNW,13.8,21.9,0.00,Snow,Light Snow,340,2014-02-05 20:48:00
2:53 PM,23.0,17.1,78,30.28,5.0,NNW,12.7,19.6,0.00,Snow,Light Snow,340,2014-02-05 20:53:00
3:53 PM,21.9,12.9,68,30.31,10.0,North,11.5,-,0.00,,Overcast,360,2014-02-05 21:53:00
4:17 PM,21.9,15.1,75,30.29,2.5,NNW,10.4,19.6,0.00,Snow,Light Snow,340,2014-02-05 22:17:00
4:26 PM,21.0,18.0,88,30.29,1.0,NNW,10.4,-,0.00,Snow,Light Snow,340,2014-02-05 22:26:00
4:28 PM,21.0,18.0,88,30.29,0.8,NNW,11.5,-,0.00,Snow,Light Snow,330,2014-02-05 22:28:00
4:53 PM,21.0,19.0,92,30.34,0.8,NNW,13.8,20.7,0.00,Snow,Light Snow,330,2014-02-05 22:53:00
5:01 PM,21.0,18.0,88,30.30,1.0,NNW,15.0,-,0.00,Snow,Light Snow,340,2014-02-05 23:01:00
5:27 PM,21.0,18.0,88,30.31,1.5,North,12.7,20.7,0.00,Snow,Light Snow,350,2014-02-05 23:27:00
5:35 PM,21.0,18.0,88,30.31,3.0,NNW,9.2,18.4,0.00,Snow,Light Snow,340,2014-02-05 23:35:00
5:44 PM,21.0,18.0,88,30.32,4.0,NNW,12.7,-,0.00,Snow,Light Snow,340,2014-02-05 23:44:00
5:53 PM,19.9,18.0,92,30.36,5.0,North,10.4,17.3,0.00,Snow,Light Snow,350,2014-02-05 23:53:00
6:35 PM,19.9,17.1,89,30.34,6.0,NNW,12.7,19.6,0.00,Snow,Light Snow,340,2014-02-06 00:35:00
6:53 PM,19.9,17.1,89,30.39,10.0,NNW,10.4,18.4,0.00,,Overcast,340,2014-02-06 00:53:00
7:53 PM,19.9,14.0,78,30.41,10.0,NNW,9.2,-,N/A,,Overcast,340,2014-02-06 01:53:00
8:33 PM,18.0,16.0,92,30.39,3.0,WNW,12.7,-,0.00,Snow,Light Snow,300,2014-02-06 02:33:00
8:46 PM,18.0,15.1,88,30.39,3.0,NW,10.4,-,0.00,Snow,Light Snow,320,2014-02-06 02:46:00
8:48 PM,17.6,15.8,93,30.39,2.5,NW,9.2,-,0.00,Snow,Light Snow,320,2014-02-06 02:48:00
8:53 PM,18.0,14.0,84,30.43,3.0,NW,8.1,-,0.00,Snow,Light Snow,310,2014-02-06 02:53:00
9:39 PM,14.0,9.0,80,30.40,10.0,WNW,9.2,-,0.00,,Partly Cloudy,300,2014-02-06 03:39:00
9:53 PM,14.0,8.1,77,30.45,10.0,WNW,6.9,-,0.00,,Partly Cloudy,300,2014-02-06 03:53:00
10:53 PM,10.9,6.1,81,30.45,10.0,WNW,6.9,-,N/A,,Clear,300,2014-02-06 04:53:00
11:53 PM,10.0,6.1,84,30.45,10.0,WNW,5.8,-,N/A,,Clear,290,2014-02-06 05:53:00